CZ-6A DEB, 64634

Orbit data source: Space-Track

CZ-6A DEB, 64634 is space debris in LEO originally from a launch on Tue, 06 Aug 2024 UTC launched from the Taiyaun Space Center, China (TSC). Debris objects in space refer to the collection of defunct objects orbiting the Earth. Examples of debris include non-operational satellites, rocket bodies, and fragments generated from explosions, collisions, or faulty payload assembly.

Loading next visibility...
Identifier
64634, 2024-140ADY
Orbit
LEO
Country
Flag of CNCN / PRC
Related business
Manufacturer
SAST
Mission
Spacecraft
Bus & Motor
Unknown
Mass
Unknown
Launch date (UTC)
2024-08-06 (2 years ago)
Launch vehicle
Unknown
Launch site
Taiyaun Space Center, China (TSC)
Object type
Payload
Rocket body
Debris
Shape & HBR
Unknown shape, 0.1 m
Radar Cross Section
Small (<0.1 m²)

Expand to show TLE details & history
Last TLE update: 15 hours ago

TLE from 15 hours ago
0 CZ-6A DEB
1 64634U 24140ADY 26118.43644251  .00002077  00000-0  10474-2 0  9995
2 64634  88.9894 280.6366 0085957  26.1978 334.3518 14.14071466 84103
Epoch: 2026-04-28T10:28Z
TLE epoch observation values (Epoch: 2026-04-28T10:28:28.632Z)
Latitude
-0.0001°
Longitude
-92.89448°
Altitude
792.633 km
Speed
7.486 km/s
True Right ascension
18h 42m 32s
True Declination
0° 00' 00"
Sunlit
Object was in daylight at epoch
Visualization orbit readout
Latitude
Unknown
Longitude
Unknown
Altitude
Unknown
Speed
Unknown
Apparent Right ascension
Unknown
Apparent Declination
Unknown
Sunlit
N/A
Visualization observer readout
Local Sidereal Time
09:13:00
Azimuth
Unknown
Elevation
Unknown
Doppler factor
Unknown
Orbital elements
Apogee altitude
904.498 km
Perigee altitude
780.366 km
Semi-major axis
7,220.569 km
Eccentricity
0.0086
Inclination
88.9894°
RAAN
280.6366°
Arg. of periapsis
26.1978°
True anomaly
333.92129°
Mean anomaly
334.3518°
Eccentric anomaly
334.13696°
Mean motion
3.53742 °/min
Orbital period
101.77 mins
BSTAR
0.0010474
Loading maneuver chart data...
Computing Atmospheric mass density...

Documentation

Showing up to 5 results
|